| time (UTC) | temp F | wind direction | speed knots | gust knots | rain 1hr in | rain 24hr in | rain mn in | humidity % | barometer mb |
| 20260508182007 | 60 | 5 | 0.9 | 2.6 | 0.00 | 0.00 | 0.00 | 59 | 1015.8 |
| 20260508181525 | 61 | 65 | 0.9 | 2.6 | 0.00 | 0.00 | 0.00 | 59 | 1015.7 |
| 20260508181009 | 61 | 43 | 0.0 | 4.3 | 0.00 | 0.00 | 0.00 | 59 | 1015.6 |
| 20260508180510 | 61 | 333 | 0.9 | 4.3 | 0.00 | 0.00 | 0.00 | 59 | 1015.7 |
| 20260508180028 | 61 | 42 | 0.9 | 3.5 | 0.00 | 0.00 | 0.00 | 57 | 1015.6 |
| 20260508175508 | 61 | 336 | 0.9 | 4.3 | 0.00 | 0.00 | 0.00 | 57 | 1015.6 |
| 20260508175009 | 62 | 5 | 0.0 | 4.3 | 0.00 | 0.00 | 0.00 | 57 | 1015.6 |
| 20260508174529 | 62 | 17 | 0.0 | 3.5 | 0.00 | 0.00 | 0.00 | 57 | 1015.5 |
| 20260508174005 | 62 | 65 | 0.0 | 3.5 | 0.00 | 0.00 | 0.00 | 57 | 1015.5 |
| 20260508173505 | 62 | 30 | 0.0 | 3.5 | 0.00 | 0.00 | 0.00 | 56 | 1015.5 |
| 20260508173017 | 63 | 25 | 0.0 | 2.6 | 0.00 | 0.00 | 0.00 | 56 | 1015.5 |
| 20260508172511 | 63 | 80 | 0.0 | 3.5 | 0.00 | 0.00 | 0.00 | 55 | 1015.4 |
| 20260508172011 | 63 | 53 | 0.9 | 3.5 | 0.00 | 0.00 | 0.00 | 54 | 1015.4 |
| 20260508171522 | 64 | 77 | 0.0 | 5.2 | 0.00 | 0.00 | 0.00 | 55 | 1015.4 |
| 20260508171009 | 64 | 36 | 1.7 | 7.0 | 0.00 | 0.00 | 0.00 | 53 | 1015.4 |
| 20260508170508 | 64 | 56 | 0.9 | 7.0 | 0.00 | 0.00 | 0.00 | 54 | 1015.3 |
| 20260508170028 | 64 | 49 | 0.9 | 2.6 | 0.00 | 0.00 | 0.00 | 53 | 1015.4 |
| 20260508165508 | 64 | 61 | 0.0 | 3.5 | 0.00 | 0.00 | 0.00 | 54 | 1015.4 |
| 20260508165008 | 64 | 73 | 0.9 | 3.5 | 0.00 | 0.00 | 0.00 | 52 | 1015.3 |
| 20260508164518 | 65 | 43 | 0.9 | 4.3 | 0.00 | 0.00 | 0.00 | 52 | 1015.3 |
| 20260508164005 | 65 | 48 | 0.0 | 4.3 | 0.00 | 0.00 | 0.00 | 52 | 1015.2 |
| 20260508163508 | 65 | 57 | 2.6 | 4.3 | 0.00 | 0.00 | 0.00 | 51 | 1015.2 |
| 20260508163027 | 65 | 288 | 0.9 | 4.3 | 0.00 | 0.00 | 0.00 | 53 | 1015.2 |
| 20260508162508 | 65 | 70 | 1.7 | 3.5 | 0.00 | 0.00 | 0.00 | 53 | 1015.2 |
| 20260508162007 | 65 | 40 | 0.9 | 3.5 | 0.00 | 0.00 | 0.00 | 51 | 1015.2 |
| 20260508161520 | 65 | 313 | 0.9 | 4.3 | 0.00 | 0.00 | 0.00 | 51 | 1015.2 |
| 20260508161009 | 65 | 331 | 0.9 | 5.2 | 0.00 | 0.00 | 0.00 | 52 | 1015.2 |
| 20260508160508 | 65 | 68 | 0.0 | 5.2 | 0.00 | 0.00 | 0.00 | 53 | 1015.2 |
| 20260508160026 | 66 | 352 | 0.9 | 5.2 | 0.00 | 0.00 | 0.00 | 51 | 1015.2 |
| 20260508155511 | 66 | 84 | 0.9 | 4.3 | 0.00 | 0.00 | 0.00 | 53 | 1015.3 |
| 20260508155009 | 65 | 315 | 0.9 | 5.2 | 0.00 | 0.00 | 0.00 | 51 | 1015.2 |
| 20260508154519 | 65 | 13 | 0.9 | 5.2 | 0.00 | 0.00 | 0.00 | 51 | 1015.2 |
| 20260508154013 | 66 | 86 | 0.9 | 3.5 | 0.00 | 0.00 | 0.00 | 50 | 1015.2 |
| 20260508153510 | 66 | 81 | 0.0 | 3.5 | 0.00 | 0.00 | 0.00 | 50 | 1015.2 |
| 20260508153023 | 66 | 352 | 0.0 | 3.5 | 0.00 | 0.00 | 0.00 | 52 | 1015.3 |
| 20260508152513 | 65 | 55 | 0.0 | 3.5 | 0.00 | 0.00 | 0.00 | 53 | 1015.3 |
| 20260508152011 | 66 | 80 | 0.0 | 2.6 | 0.00 | 0.00 | 0.00 | 52 | 1015.4 |
| 20260508151519 | 66 | 126 | 0.0 | 2.6 | 0.00 | 0.00 | 0.00 | 53 | 1015.4 |
| 20260508151009 | 66 | 309 | 0.0 | 6.1 | 0.00 | 0.00 | 0.00 | 51 | 1015.5 |
| 20260508150509 | 66 | 53 | 0.0 | 6.1 | 0.00 | 0.00 | 0.00 | 50 | 1015.5 |
| 20260508150045 | 66 | 360 | 1.7 | 5.2 | 0.00 | 0.00 | 0.00 | 52 | 1015.5 |
| 20260508145507 | 65 | 160 | 1.7 | 4.3 | 0.00 | 0.00 | 0.00 | 52 | 1015.6 |
| 20260508145008 | 65 | 107 | 0.0 | 2.6 | 0.00 | 0.00 | 0.00 | 53 | 1015.6 |
| 20260508144522 | 64 | 202 | 0.0 | 1.7 | 0.00 | 0.00 | 0.00 | 53 | 1015.6 |
| 20260508144007 | 65 | 25 | 0.0 | 1.7 | 0.00 | 0.00 | 0.00 | 53 | 1015.7 |
| 20260508143509 | 65 | 13 | 0.0 | 1.7 | 0.00 | 0.00 | 0.00 | 51 | 1015.7 |
| 20260508143025 | 64 | 172 | 0.0 | 4.3 | 0.00 | 0.00 | 0.00 | 55 | 1015.8 |
| 20260508142509 | 65 | 86 | 0.0 | 6.1 | 0.00 | 0.00 | 0.00 | 52 | 1015.8 |
| 20260508142007 | 66 | 289 | 0.0 | 6.1 | 0.00 | 0.00 | 0.00 | 51 | 1015.7 |
| 20260508141530 | 67 | 329 | 0.9 | 6.1 | 0.00 | 0.00 | 0.00 | 52 | 1015.7 |
| 20260508141012 | 66 | 67 | 2.6 | 6.1 | 0.00 | 0.00 | 0.00 | 52 | 1015.7 |
| 20260508140509 | 65 | 15 | 1.7 | 5.2 | 0.00 | 0.00 | 0.00 | 53 | 1015.6 |
| 20260508140024 | 65 | 140 | 0.9 | 5.2 | 0.00 | 0.00 | 0.00 | 54 | 1015.7 |
| 20260508135505 | 64 | 136 | 0.9 | 5.2 | 0.00 | 0.03 | 0.00 | 57 | 1015.7 |
| 20260508135005 | 64 | 95 | 0.9 | 5.2 | 0.00 | 0.06 | 0.00 | 56 | 1015.8 |
| 20260508134504 | 65 | 139 | 1.7 | 4.3 | 0.00 | 0.06 | 0.00 | 54 | 1015.9 |
| 20260508134004 | 66 | 352 | 0.0 | 4.3 | 0.00 | 0.06 | 0.00 | 52 | 1016.0 |
| 20260508133507 | 67 | 153 | 0.0 | 4.3 | 0.00 | 0.06 | 0.00 | 50 | 1016.0 |
| 20260508133009 | 66 | 125 | 0.9 | 2.6 | 0.00 | 0.06 | 0.00 | 56 | 1016.0 |
| 20260508132503 | 64 | 161 | 0.9 | 3.5 | 0.00 | 0.06 | 0.00 | 58 | 1016.0 |
| 20260508132004 | 64 | 158 | 0.9 | 3.5 | 0.00 | 0.06 | 0.00 | 58 | 1016.0 |
| 20260508131510 | 63 | 115 | 0.0 | 2.6 | 0.00 | 0.06 | 0.00 | 58 | 1016.1 |
| 20260508131008 | 62 | 146 | 0.0 | 2.6 | 0.00 | 0.06 | 0.00 | 57 | 1016.2 |
| 20260508130504 | 62 | 62 | 0.0 | 2.6 | 0.00 | 0.06 | 0.00 | 58 | 1016.2 |
| 20260508130016 | 63 | 352 | 0.0 | 4.3 | 0.00 | 0.06 | 0.00 | 57 | 1016.2 |
| 20260508125509 | 64 | 352 | 0.0 | 7.0 | 0.00 | 0.06 | 0.00 | 58 | 1016.2 |
| 20260508125010 | 65 | 25 | 2.6 | 5.2 | 0.00 | 0.06 | 0.00 | 57 | 1016.2 |
| 20260508124524 | 64 | 169 | 1.7 | 3.5 | 0.00 | 0.06 | 0.00 | 57 | 1016.3 |
| 20260508124004 | 63 | 237 | 0.0 | 1.7 | 0.00 | 0.06 | 0.00 | 58 | 1016.3 |
| 20260508123504 | 62 | 42 | 0.0 | 3.5 | 0.00 | 0.06 | 0.00 | 60 | 1016.3 |
| 20260508123007 | 62 | 122 | 0.0 | 5.2 | 0.00 | 0.06 | 0.00 | 59 | 1016.3 |
| 20260508122505 | 63 | 49 | 1.7 | 5.2 | 0.00 | 0.06 | 0.00 | 58 | 1016.2 |
| 20260508122006 | 63 | 45 | 0.9 | 4.3 | 0.00 | 0.06 | 0.00 | 60 | 1016.2 |
| 20260508121512 | 64 | 176 | 0.0 | 4.3 | 0.00 | 0.06 | 0.00 | 58 | 1016.2 |
| 20260508121004 | 64 | 32 | 1.7 | 5.2 | 0.00 | 0.06 | 0.00 | 62 | 1016.2 |
| 20260508120505 | 65 | 80 | 0.9 | 7.0 | 0.00 | 0.06 | 0.00 | 63 | 1016.3 |
| 20260508120020 | 64 | 37 | 1.7 | 7.0 | 0.00 | 0.06 | 0.00 | 60 | 1016.3 |
| 20260508115509 | 64 | 74 | 0.0 | 3.5 | 0.00 | 0.06 | 0.00 | 55 | 1016.3 |
| 20260508115006 | 64 | 109 | 0.0 | 3.5 | 0.00 | 0.06 | 0.00 | 61 | 1016.3 |
| 20260508114523 | 62 | 360 | 0.0 | 3.5 | 0.00 | 0.06 | 0.00 | 62 | 1016.4 |
| 20260508114009 | 63 | 144 | 0.0 | 3.5 | 0.00 | 0.06 | 0.00 | 62 | 1016.4 |
| 20260508113505 | 62 | 67 | 0.0 | 7.0 | 0.00 | 0.06 | 0.00 | 68 | 1016.5 |
| 20260508113005 | 61 | 159 | 1.7 | 7.0 | 0.00 | 0.06 | 0.00 | 66 | 1016.6 |
| 20260508112505 | 62 | 107 | 1.7 | 7.0 | 0.00 | 0.06 | 0.00 | 65 | 1016.6 |
| 20260508112004 | 62 | 107 | 1.7 | 7.8 | 0.00 | 0.06 | 0.00 | 66 | 1016.7 |
| 20260508111510 | 62 | 20 | 2.6 | 7.8 | 0.00 | 0.06 | 0.00 | 67 | 1016.7 |
| 20260508111006 | 61 | 77 | 0.9 | 6.1 | 0.00 | 0.06 | 0.00 | 69 | 1016.7 |
| 20260508110506 | 61 | 127 | 0.9 | 6.1 | 0.00 | 0.06 | 0.00 | 68 | 1016.7 |
| 20260508110017 | 61 | 169 | 0.9 | 6.1 | 0.00 | 0.06 | 0.00 | 69 | 1016.8 |
| 20260508105505 | 60 | 109 | 0.9 | 5.2 | 0.00 | 0.06 | 0.00 | 68 | 1016.9 |
| 20260508105006 | 59 | 352 | 0.0 | 6.1 | 0.00 | 0.06 | 0.00 | 71 | 1016.9 |
| 20260508104523 | 60 | 98 | 2.6 | 6.1 | 0.00 | 0.06 | 0.00 | 70 | 1017.0 |
| 20260508104004 | 60 | 69 | 0.9 | 4.3 | 0.00 | 0.06 | 0.00 | 69 | 1017.1 |
| 20260508103505 | 58 | 173 | 0.9 | 4.3 | 0.00 | 0.06 | 0.00 | 72 | 1017.0 |
| 20260508103010 | 58 | 169 | 0.9 | 3.5 | 0.00 | 0.06 | 0.00 | 74 | 1017.1 |
| 20260508102505 | 58 | 83 | 0.9 | 3.5 | 0.00 | 0.06 | 0.00 | 76 | 1017.1 |
| 20260508102004 | 58 | 81 | 1.7 | 3.5 | 0.00 | 0.06 | 0.00 | 71 | 1017.1 |
| 20260508101508 | 58 | 147 | 0.0 | 3.5 | 0.00 | 0.06 | 0.00 | 75 | 1017.1 |
| 20260508101004 | 56 | 107 | 0.9 | 4.3 | 0.00 | 0.06 | 0.00 | 78 | 1017.1 |
| 20260508100505 | 56 | 158 | 0.9 | 4.3 | 0.00 | 0.06 | 0.00 | 75 | 1017.1 |
| 20260508100022 | 57 | 32 | 0.0 | 3.5 | 0.00 | 0.06 | 0.00 | 78 | 1017.1 |
| 20260508095507 | 55 | 112 | 0.9 | 3.5 | 0.00 | 0.06 | 0.00 | 79 | 1017.1 |
| 20260508095008 | 55 | 118 | 0.9 | 3.5 | 0.00 | 0.06 | 0.00 | 81 | 1017.2 |
| 20260508094521 | 55 | 86 | 1.7 | 2.6 | 0.00 | 0.06 | 0.00 | 81 | 1017.3 |
| 20260508094007 | 52 | 122 | 0.9 | 3.5 | 0.00 | 0.06 | 0.00 | 84 | 1017.3 |
| 20260508093506 | 53 | 90 | 0.9 | 3.5 | 0.00 | 0.06 | 0.00 | 84 | 1017.4 |
| 20260508093018 | 53 | 33 | 0.9 | 3.5 | 0.00 | 0.06 | 0.00 | 84 | 1017.4 |
| 20260508092506 | 52 | 5 | 0.0 | 4.3 | 0.00 | 0.06 | 0.00 | 84 | 1017.3 |
| 20260508092006 | 52 | 134 | 0.9 | 4.3 | 0.00 | 0.06 | 0.00 | 84 | 1017.4 |
| 20260508091518 | 51 | 33 | 0.9 | 3.5 | 0.00 | 0.06 | 0.00 | 84 | 1017.4 |
| 20260508091009 | 51 | 330 | 0.9 | 3.5 | 0.00 | 0.06 | 0.00 | 86 | 1017.4 |
| 20260508090505 | 51 | 342 | 0.0 | 3.5 | 0.00 | 0.06 | 0.00 | 86 | 1017.5 |
| 20260508090011 | 51 | 118 | 0.9 | 3.5 | 0.00 | 0.06 | 0.00 | 88 | 1017.5 |
| 20260508085503 | 50 | 157 | 0.9 | 3.5 | 0.00 | 0.06 | 0.00 | 88 | 1017.5 |
| 20260508085005 | 49 | 161 | 0.0 | 3.5 | 0.00 | 0.06 | 0.00 | 89 | 1017.5 |
| 20260508084514 | 49 | 122 | 0.9 | 2.6 | 0.00 | 0.06 | 0.00 | 88 | 1017.5 |
| 20260508084004 | 49 | 141 | 0.0 | 2.6 | 0.00 | 0.06 | 0.00 | 88 | 1017.5 |
| 20260508083505 | 50 | 5 | 0.0 | 2.6 | 0.00 | 0.06 | 0.00 | 89 | 1017.5 |
| 20260508083016 | 49 | 46 | 0.0 | 2.6 | 0.00 | 0.06 | 0.00 | 88 | 1017.4 |
| 20260508082506 | 49 | 69 | 0.9 | 2.6 | 0.00 | 0.06 | 0.00 | 89 | 1017.4 |
| 20260508082009 | 49 | 125 | 0.9 | 1.7 | 0.00 | 0.06 | 0.00 | 90 | 1017.4 |
| 20260508081526 | 49 | 146 | 0.0 | 2.6 | 0.00 | 0.06 | 0.00 | 91 | 1017.3 |
| 20260508081008 | 49 | 71 | 0.0 | 4.3 | 0.00 | 0.06 | 0.00 | 90 | 1017.3 |
| 20260508080507 | 49 | 92 | 0.0 | 4.3 | 0.00 | 0.06 | 0.00 | 91 | 1017.3 |
| 20260508080040 | 49 | 38 | 0.0 | 2.6 | 0.00 | 0.06 | 0.00 | 92 | 1017.3 |
| 20260508075503 | 49 | 74 | 0.0 | 2.6 | 0.00 | 0.06 | 0.00 | 92 | 1017.2 |
| 20260508075008 | 49 | 82 | 0.9 | 2.6 | 0.00 | 0.06 | 0.00 | 93 | 1017.1 |
| 20260508074509 | 48 | 101 | 0.0 | 2.6 | 0.00 | 0.06 | 0.00 | 93 | 1017.1 |
| 20260508074004 | 48 | 128 | 0.9 | 3.5 | 0.00 | 0.06 | 0.00 | 93 | 1017.1 |
| 20260508073504 | 48 | 108 | 1.7 | 3.5 | 0.00 | 0.06 | 0.00 | 93 | 1017.2 |
| 20260508073015 | 48 | 116 | 0.9 | 3.5 | 0.00 | 0.06 | 0.00 | 94 | 1017.3 |
| 20260508072507 | 48 | 99 | 0.0 | 1.7 | 0.00 | 0.06 | 0.00 | 94 | 1017.2 |
| 20260508072008 | 48 | 67 | 0.0 | 2.6 | 0.00 | 0.06 | 0.00 | 94 | 1017.1 |
| 20260508071524 | 48 | 54 | 0.0 | 2.6 | 0.00 | 0.06 | 0.00 | 95 | 1017.1 |
| 20260508071008 | 48 | 66 | 0.0 | 1.7 | 0.00 | 0.06 | 0.00 | 95 | 1017.0 |
| 20260508070513 | 48 | 5 | 0.0 | 1.7 | 0.00 | 0.06 | 0.00 | 95 | 1017.0 |
| 20260508070025 | 48 | 59 | 0.0 | 1.7 | 0.00 | 0.06 | 0.00 | 95 | 1017.0 |
| 20260508065509 | 47 | 31 | 0.0 | 1.7 | 0.00 | 0.06 | 0.00 | 95 | 1017.0 |
| 20260508065010 | 47 | 38 | 0.0 | 1.7 | 0.00 | 0.06 | 0.00 | 95 | 1017.0 |
| 20260508064529 | 47 | 42 | 0.0 | 1.7 | 0.00 | 0.06 | 0.00 | 95 | 1017.0 |
| 20260508064004 | 48 | 59 | 0.0 | 1.7 | 0.00 | 0.06 | 0.00 | 95 | 1017.0 |
| 20260508063507 | 47 | 59 | 0.0 | 1.7 | 0.00 | 0.06 | 0.00 | 95 | 1017.0 |
| 20260508063018 | 47 | 57 | 0.0 | 1.7 | 0.00 | 0.06 | 0.00 | 95 | 1017.0 |
| 20260508062508 | 47 | 36 | 0.0 | 1.7 | 0.00 | 0.06 | 0.00 | 95 | 1017.0 |
| 20260508062009 | 47 | 77 | 0.0 | 0.9 | 0.00 | 0.06 | 0.00 | 95 | 1016.8 |
| 20260508061523 | 48 | 107 | 0.0 | 0.0 | 0.00 | 0.06 | 0.00 | 95 | 1016.7 |
| 20260508061008 | 47 | 109 | 0.0 | 0.0 | 0.00 | 0.06 | 0.00 | 95 | 1016.6 |
| 20260508060503 | 47 | 109 | 0.0 | 0.0 | 0.00 | 0.06 | 0.00 | 95 | 1016.6 |
| 20260508060009 | 47 | 109 | 0.0 | 1.7 | 0.00 | 0.06 | 0.00 | 95 | 1016.5 |
| 20260508055503 | 47 | 115 | 0.0 | 1.7 | 0.00 | 0.06 | 0.00 | 95 | 1016.4 |
| 20260508055004 | 47 | 170 | 0.0 | 1.7 | 0.00 | 0.06 | 0.00 | 95 | 1016.4 |
| 20260508054516 | 46 | 228 | 0.0 | 1.7 | 0.00 | 0.06 | 0.00 | 95 | 1016.3 |
| 20260508054004 | 46 | 219 | 0.0 | 1.7 | 0.00 | 0.06 | 0.00 | 95 | 1016.2 |
| 20260508053503 | 46 | 125 | 0.0 | 1.7 | 0.00 | 0.06 | 0.00 | 95 | 1016.2 |
| 20260508053019 | 46 | 116 | 0.0 | 1.7 | 0.00 | 0.06 | 0.00 | 95 | 1016.2 |
| 20260508052507 | 46 | 143 | 0.0 | 1.7 | 0.00 | 0.06 | 0.00 | 95 | 1016.2 |
| 20260508052010 | 46 | 137 | 0.0 | 0.0 | 0.00 | 0.06 | 0.00 | 95 | 1016.2 |
| 20260508051522 | 46 | 80 | 0.0 | 1.7 | 0.00 | 0.06 | 0.00 | 95 | 1016.2 |
| 20260508051006 | 46 | 91 | 0.0 | 1.7 | 0.00 | 0.06 | 0.00 | 95 | 1016.2 |
| 20260508050503 | 46 | 74 | 0.0 | 1.7 | 0.00 | 0.06 | 0.00 | 95 | 1016.2 |
| 20260508050010 | 46 | 119 | 0.0 | 1.7 | 0.00 | 0.06 | 0.00 | 95 | 1016.2 |
| 20260508045503 | 46 | 119 | 0.0 | 1.7 | 0.00 | 0.06 | 0.00 | 94 | 1016.2 |
| 20260508045003 | 46 | 150 | 0.0 | 1.7 | 0.00 | 0.06 | 0.00 | 95 | 1016.1 |
| 20260508044509 | 45 | 126 | 0.0 | 1.7 | 0.00 | 0.06 | 0.00 | 94 | 1016.1 |
| 20260508044004 | 45 | 161 | 0.0 | 1.7 | 0.00 | 0.06 | 0.00 | 94 | 1016.1 |
| 20260508043504 | 45 | 117 | 0.0 | 1.7 | 0.00 | 0.06 | 0.00 | 94 | 1016.0 |
| 20260508043014 | 45 | 151 | 0.0 | 1.7 | 0.00 | 0.06 | 0.00 | 94 | 1015.9 |
| 20260508042507 | 45 | 167 | 0.0 | 0.0 | 0.00 | 0.06 | 0.00 | 94 | 1015.9 |
| 20260508042004 | 45 | 167 | 0.0 | 2.6 | 0.00 | 0.06 | 0.00 | 94 | 1015.9 |
| 20260508041520 | 45 | 167 | 0.0 | 2.6 | 0.00 | 0.06 | 0.00 | 94 | 1016.0 |
| 20260508041004 | 45 | 323 | 0.0 | 0.0 | 0.00 | 0.06 | 0.00 | 94 | 1015.8 |
| 20260508040504 | 45 | 323 | 0.0 | 0.0 | 0.00 | 0.06 | 0.00 | 94 | 1015.8 |
| 20260508040033 | 45 | 349 | 0.0 | 0.0 | 0.00 | 0.06 | 0.00 | 94 | 1015.8 |
| 20260508035503 | 44 | 348 | 0.0 | 0.0 | 0.00 | 0.06 | 0.00 | 94 | 1015.8 |
| 20260508035008 | 44 | 348 | 0.0 | 0.0 | 0.00 | 0.06 | 0.00 | 94 | 1015.8 |
| 20260508034524 | 45 | 331 | 0.0 | 0.0 | 0.00 | 0.06 | 0.00 | 94 | 1015.8 |
| 20260508034007 | 45 | 320 | 0.0 | 0.0 | 0.00 | 0.06 | 0.00 | 94 | 1015.8 |
| 20260508033508 | 45 | 319 | 0.0 | 0.0 | 0.00 | 0.06 | 0.00 | 94 | 1015.7 |
| 20260508033008 | 45 | 320 | 0.0 | 0.0 | 0.00 | 0.06 | 0.00 | 94 | 1015.7 |
| 20260508032505 | 45 | 316 | 0.0 | 0.0 | 0.00 | 0.06 | 0.00 | 94 | 1015.7 |
| 20260508032005 | 46 | 309 | 0.0 | 0.0 | 0.00 | 0.06 | 0.00 | 94 | 1015.7 |
| 20260508031519 | 46 | 309 | 0.0 | 0.0 | 0.00 | 0.06 | 0.00 | 94 | 1015.7 |
| 20260508031005 | 46 | 309 | 0.0 | 0.0 | 0.00 | 0.06 | 0.00 | 94 | 1015.7 |
| 20260508030504 | 46 | 309 | 0.0 | 0.0 | 0.00 | 0.06 | 0.00 | 94 | 1015.7 |
| 20260508030014 | 46 | 309 | 0.0 | 0.0 | 0.00 | 0.06 | 0.00 | 94 | 1015.7 |
| 20260508025504 | 46 | 327 | 0.0 | 0.0 | 0.00 | 0.06 | 0.00 | 94 | 1015.7 |
| 20260508025007 | 46 | 327 | 0.0 | 0.9 | 0.00 | 0.06 | 0.00 | 94 | 1015.7 |
| 20260508024525 | 46 | 339 | 0.0 | 0.9 | 0.00 | 0.06 | 0.00 | 94 | 1015.7 |
| 20260508024011 | 47 | 27 | 0.0 | 0.0 | 0.00 | 0.06 | 0.00 | 94 | 1015.7 |
| 20260508023509 | 47 | 27 | 0.0 | 0.9 | 0.00 | 0.06 | 0.00 | 93 | 1015.7 |
| 20260508023026 | 47 | 30 | 0.0 | 0.9 | 0.00 | 0.06 | 0.00 | 94 | 1015.7 |
| 20260508022509 | 47 | 184 | 0.0 | 0.0 | 0.00 | 0.06 | 0.00 | 94 | 1015.7 |
| 20260508022011 | 47 | 184 | 0.0 | 0.0 | 0.00 | 0.06 | 0.00 | 93 | 1015.8 |
| 20260508021513 | 47 | 184 | 0.0 | 0.0 | 0.00 | 0.06 | 0.00 | 93 | 1015.8 |
| 20260508021004 | 47 | 184 | 0.0 | 0.0 | 0.00 | 0.06 | 0.00 | 93 | 1015.9 |
| 20260508020504 | 47 | 184 | 0.0 | 0.0 | 0.00 | 0.06 | 0.00 | 93 | 1015.9 |
| 20260508020016 | 47 | 188 | 0.0 | 0.0 | 0.00 | 0.06 | 0.00 | 93 | 1015.9 |
| 20260508015504 | 47 | 173 | 0.0 | 0.0 | 0.00 | 0.06 | 0.00 | 93 | 1015.9 |
| 20260508015006 | 47 | 117 | 0.0 | 0.0 | 0.00 | 0.06 | 0.00 | 93 | 1015.9 |
| 20260508014524 | 47 | 85 | 0.0 | 0.0 | 0.00 | 0.06 | 0.00 | 93 | 1015.9 |
| 20260508014007 | 47 | 85 | 0.0 | 0.0 | 0.00 | 0.06 | 0.00 | 93 | 1015.9 |
| 20260508013509 | 46 | 70 | 0.0 | 0.0 | 0.00 | 0.06 | 0.00 | 92 | 1015.9 |
| 20260508013026 | 46 | 70 | 0.0 | 0.0 | 0.00 | 0.06 | 0.00 | 92 | 1015.9 |
| 20260508012510 | 46 | 66 | 0.0 | 0.0 | 0.00 | 0.06 | 0.00 | 92 | 1015.9 |
| 20260508012008 | 46 | 66 | 0.0 | 0.0 | 0.00 | 0.06 | 0.00 | 91 | 1015.8 |
| 20260508011527 | 46 | 66 | 0.0 | 0.0 | 0.00 | 0.06 | 0.00 | 91 | 1015.8 |
| 20260508011007 | 46 | 66 | 0.0 | 0.0 | 0.00 | 0.06 | 0.00 | 92 | 1015.9 |
| 20260508010505 | 46 | 66 | 0.0 | 0.0 | 0.00 | 0.06 | 0.00 | 91 | 1016.0 |
| 20260508010016 | 47 | 66 | 0.0 | 0.0 | 0.00 | 0.06 | 0.00 | 91 | 1016.0 |
| 20260508005505 | 47 | 66 | 0.0 | 0.0 | 0.00 | 0.06 | 0.00 | 92 | 1016.0 |
| 20260508005006 | 47 | 66 | 0.0 | 0.0 | 0.00 | 0.06 | 0.00 | 91 | 1016.1 |
| 20260508004521 | 47 | 66 | 0.0 | 0.0 | 0.00 | 0.06 | 0.00 | 91 | 1016.1 |
| 20260508004013 | 47 | 66 | 0.0 | 0.0 | 0.00 | 0.06 | 0.00 | 91 | 1016.1 |
| 20260508003514 | 48 | 66 | 0.0 | 0.0 | 0.00 | 0.06 | 0.00 | 91 | 1016.2 |
| 20260508003026 | 48 | 66 | 0.0 | 0.0 | 0.00 | 0.06 | 0.00 | 91 | 1016.2 |
| 20260508002509 | 48 | 66 | 0.0 | 0.0 | 0.00 | 0.06 | 0.00 | 91 | 1016.2 |
| 20260508002010 | 48 | 66 | 0.0 | 0.0 | 0.00 | 0.06 | 0.00 | 91 | 1016.2 |
| 20260508001530 | 48 | 66 | 0.0 | 0.0 | 0.00 | 0.06 | 0.00 | 90 | 1016.3 |
| 20260508001005 | 48 | 66 | 0.0 | 0.0 | 0.00 | 0.06 | 0.00 | 90 | 1016.3 |
| 20260508000510 | 48 | 66 | 0.0 | 0.0 | 0.00 | 0.06 | 0.00 | 90 | 1016.2 |
| 20260508000022 | 49 | 56 | 0.0 | 0.0 | 0.00 | 0.06 | 0.00 | 90 | 1016.3 |
| 20260507235507 | 49 | 53 | 0.0 | 0.0 | 0.00 | 0.06 | 0.00 | 89 | 1016.3 |
| 20260507235006 | 49 | 53 | 0.0 | 0.0 | 0.00 | 0.06 | 0.00 | 89 | 1016.4 |
| 20260507234528 | 49 | 53 | 0.0 | 0.0 | 0.00 | 0.06 | 0.00 | 89 | 1016.5 |
| 20260507234006 | 49 | 53 | 0.0 | 0.0 | 0.00 | 0.06 | 0.00 | 89 | 1016.5 |
| 20260507233507 | 49 | 53 | 0.0 | 0.0 | 0.00 | 0.06 | 0.00 | 88 | 1016.5 |
| 20260507233024 | 50 | 53 | 0.0 | 0.0 | 0.00 | 0.06 | 0.00 | 88 | 1016.5 |
| 20260507232508 | 50 | 53 | 0.0 | 0.0 | 0.00 | 0.06 | 0.00 | 88 | 1016.6 |
| 20260507232011 | 50 | 53 | 0.0 | 0.0 | 0.00 | 0.06 | 0.00 | 87 | 1016.6 |
| 20260507231526 | 50 | 53 | 0.0 | 0.0 | 0.00 | 0.06 | 0.00 | 87 | 1016.6 |
| 20260507231008 | 50 | 53 | 0.0 | 0.0 | 0.00 | 0.06 | 0.00 | 87 | 1016.8 |
| 20260507230506 | 50 | 53 | 0.0 | 0.0 | 0.00 | 0.06 | 0.00 | 87 | 1016.9 |
| 20260507230024 | 50 | 53 | 0.0 | 0.0 | 0.00 | 0.06 | 0.00 | 87 | 1016.9 |
| 20260507225509 | 50 | 53 | 0.0 | 0.0 | 0.00 | 0.06 | 0.00 | 87 | 1017.0 |
| 20260507225009 | 50 | 53 | 0.0 | 0.0 | 0.00 | 0.06 | 0.00 | 88 | 1017.0 |
| 20260507224528 | 50 | 53 | 0.0 | 0.0 | 0.00 | 0.06 | 0.00 | 88 | 1017.0 |
| 20260507224012 | 50 | 53 | 0.0 | 0.0 | 0.00 | 0.06 | 0.00 | 87 | 1017.0 |
| 20260507223506 | 50 | 53 | 0.0 | 0.0 | 0.00 | 0.06 | 0.00 | 87 | 1017.0 |
| 20260507223020 | 50 | 53 | 0.0 | 0.0 | 0.00 | 0.06 | 0.00 | 87 | 1017.0 |
| 20260507222506 | 51 | 53 | 0.0 | 0.0 | 0.00 | 0.06 | 0.00 | 87 | 1016.9 |
| 20260507222007 | 51 | 49 | 0.0 | 0.0 | 0.00 | 0.06 | 0.00 | 88 | 1017.0 |
| 20260507221529 | 51 | 49 | 0.0 | 0.0 | 0.00 | 0.06 | 0.00 | 88 | 1017.0 |
| 20260507221008 | 51 | 49 | 0.0 | 0.0 | 0.00 | 0.06 | 0.00 | 88 | 1017.0 |
| 20260507220508 | 51 | 49 | 0.0 | 0.0 | 0.00 | 0.06 | 0.00 | 89 | 1016.9 |
| 20260507220034 | 51 | 49 | 0.0 | 0.0 | 0.00 | 0.06 | 0.00 | 88 | 1016.9 |
| 20260507215510 | 51 | 53 | 0.0 | 0.0 | 0.00 | 0.06 | 0.06 | 89 | 1016.8 |
| 20260507215008 | 51 | 104 | 0.0 | 0.0 | 0.00 | 0.06 | 0.06 | 88 | 1016.8 |
| 20260507214529 | 51 | 104 | 0.0 | 0.0 | 0.00 | 0.06 | 0.06 | 88 | 1016.8 |
| 20260507214009 | 51 | 104 | 0.0 | 0.0 | 0.00 | 0.06 | 0.06 | 87 | 1016.8 |
| 20260507213504 | 51 | 104 | 0.0 | 0.0 | 0.00 | 0.06 | 0.06 | 87 | 1016.7 |
| 20260507213022 | 51 | 104 | 0.0 | 0.0 | 0.00 | 0.06 | 0.06 | 87 | 1016.8 |
| 20260507212504 | 51 | 104 | 0.0 | 0.0 | 0.00 | 0.06 | 0.06 | 86 | 1016.7 |
| 20260507212008 | 51 | 104 | 0.0 | 0.0 | 0.00 | 0.06 | 0.06 | 86 | 1016.7 |
| 20260507211521 | 51 | 104 | 0.0 | 0.0 | 0.00 | 0.06 | 0.06 | 86 | 1016.7 |
| 20260507211004 | 51 | 104 | 0.0 | 0.0 | 0.00 | 0.06 | 0.06 | 85 | 1016.8 |
| 20260507210503 | 51 | 104 | 0.0 | 0.0 | 0.00 | 0.06 | 0.06 | 84 | 1016.7 |
| 20260507210007 | 51 | 104 | 0.0 | 0.0 | 0.00 | 0.06 | 0.06 | 83 | 1016.7 |
| 20260507205503 | 51 | 65 | 0.0 | 0.0 | 0.00 | 0.06 | 0.06 | 81 | 1016.7 |
| 20260507205005 | 51 | 65 | 0.0 | 0.0 | 0.00 | 0.06 | 0.06 | 81 | 1016.7 |
| 20260507204510 | 51 | 65 | 0.0 | 0.0 | 0.00 | 0.06 | 0.06 | 82 | 1016.7 |
| 20260507204004 | 51 | 80 | 0.0 | 0.0 | 0.00 | 0.06 | 0.06 | 83 | 1016.6 |
| 20260507203505 | 51 | 80 | 0.0 | 0.0 | 0.00 | 0.06 | 0.06 | 83 | 1016.6 |
| 20260507203016 | 51 | 80 | 0.0 | 0.0 | 0.00 | 0.06 | 0.06 | 82 | 1016.6 |
| 20260507202503 | 52 | 80 | 0.0 | 0.0 | 0.00 | 0.06 | 0.06 | 82 | 1016.6 |
| 20260507202008 | 52 | 80 | 0.0 | 0.0 | 0.00 | 0.06 | 0.06 | 82 | 1016.4 |
| 20260507201522 | 52 | 80 | 0.0 | 0.0 | 0.00 | 0.06 | 0.06 | 82 | 1016.4 |
| 20260507201008 | 52 | 80 | 0.0 | 0.9 | 0.00 | 0.06 | 0.06 | 83 | 1016.4 |
| 20260507200507 | 52 | 80 | 0.0 | 0.9 | 0.00 | 0.06 | 0.06 | 83 | 1016.4 |
| 20260507200009 | 52 | 56 | 0.0 | 0.0 | 0.00 | 0.06 | 0.06 | 83 | 1016.3 |
| 20260507195503 | 52 | 51 | 0.0 | 1.7 | 0.00 | 0.06 | 0.06 | 83 | 1016.3 |
| 20260507195006 | 52 | 51 | 0.0 | 1.7 | 0.00 | 0.06 | 0.06 | 83 | 1016.4 |
| 20260507194525 | 52 | 14 | 0.0 | 0.9 | 0.00 | 0.06 | 0.06 | 83 | 1016.3 |
| 20260507194004 | 52 | 338 | 0.0 | 0.0 | 0.00 | 0.06 | 0.06 | 84 | 1016.3 |
| 20260507193508 | 52 | 347 | 0.0 | 0.0 | 0.00 | 0.06 | 0.06 | 84 | 1016.2 |
| 20260507193015 | 52 | 347 | 0.0 | 0.0 | 0.00 | 0.06 | 0.06 | 84 | 1016.2 |
| 20260507192506 | 52 | 347 | 0.0 | 0.0 | 0.00 | 0.06 | 0.06 | 84 | 1016.1 |
| 20260507192005 | 52 | 347 | 0.0 | 0.0 | 0.00 | 0.06 | 0.06 | 84 | 1016.1 |
| 20260507191519 | 52 | 347 | 0.0 | 1.7 | 0.00 | 0.06 | 0.06 | 84 | 1016.0 |
| 20260507191009 | 52 | 342 | 0.0 | 1.7 | 0.00 | 0.06 | 0.06 | 84 | 1016.0 |
| 20260507190505 | 52 | 265 | 0.0 | 1.7 | 0.00 | 0.06 | 0.06 | 83 | 1016.0 |
| 20260507190012 | 52 | 222 | 0.0 | 0.0 | 0.00 | 0.06 | 0.06 | 82 | 1015.9 |
| 20260507185506 | 52 | 138 | 0.0 | 1.7 | 0.00 | 0.06 | 0.06 | 82 | 1015.7 |
| 20260507185008 | 52 | 138 | 0.0 | 2.6 | 0.00 | 0.06 | 0.06 | 82 | 1015.7 |
| 20260507184511 | 52 | 128 | 0.0 | 2.6 | 0.00 | 0.06 | 0.06 | 81 | 1015.7 |
| 20260507184004 | 52 | 103 | 0.0 | 2.6 | 0.00 | 0.06 | 0.06 | 81 | 1015.6 |
| 20260507183503 | 53 | 140 | 0.0 | 2.6 | 0.00 | 0.06 | 0.06 | 80 | 1015.5 |
| 20260507183014 | 53 | 139 | 0.0 | 2.6 | 0.00 | 0.06 | 0.06 | 79 | 1015.5 |
| 20260507182505 | 53 | 135 | 0.0 | 2.6 | 0.00 | 0.06 | 0.06 | 78 | 1015.5 |